ONEWEB-0288 (49078 NORAD) Tracking and Keplerian Element Data

This shows tracking and keplerian element data for the satellite.

Feedback or suggestion? Click here.




ElementValue
Catalog49078
NameONEWEB-0288
Epoch Orbit358
Epoch Day300.58334491
Epoch Year2021
RAAN344.2673
Inclination87.5384
Eccentricity0.0020706
Argument of Perigee70.8722
Mean Anonmoly118.7724
Mean Motion14.85795012
Decay Rate0.00039432
L11 49078U 21075D 21300.58334491 .00039432 00000-0 44962-2 0 9994
L22 49078 87.5384 344.2673 0020706 70.8722 118.7724 14.85795012 3583

Live tracking and technical data element details for ONEWEB-0288 (NORAD 49078). ONEWEB-0288 can be tracked NOW for your location showing map with azimuth and elevation plus other details from your city location.

Track the satellite on the map from your city or location and see movement details for azimuth, elevation, latitude, longitude, range, height, and movement on the map or in text.







IsCatalogInMostPopularTable: catalog: 49078, numindb: 14
Update: records affected: 1



GetName: 49078 ONEWEB-0288

Hit Count: updated at: Thu, 28 Oct 2021 12:08:42 GMT